Weather History for KDZB - March, 2013

Change the Weather History Date:

Thursday, March 7, 2013

  Actual Average (KBMQ) Record (KBMQ)
Temperature  
Mean Temperature 55 °F -  
Max Temperature 69 °F 63 °F 79 °F (2003)
Min Temperature 41 °F 44 °F 34 °F (2008)
Degree Days  
Heating Degree Days 10    
Growing Degree Days 5 (Base 50)    
Moisture  
Dew Point 40 °F    
Average Humidity 54    
Maximum Humidity 77    
Minimum Humidity 34    
Precipitation  
Precipitation 0.00 in - - ()
Sea Level Pressure  
Sea Level Pressure 30.14 in    
Wind  
Wind Speed 5 mph (SSE)    
Max Wind Speed 13 mph    
Max Gust Speed 23 mph    
Visibility 10 miles    
Events      
Averages and records for this station are not official NWS values.
T = Trace of Precipitation, MM = Missing Value Source: NWS Daily Summary

Daily Weather History Graph

Daily Weather History Graph

Search for Another Location

Airport or City:

Trip Planner

Search our weather history database for the weather conditions in past years. The results will help you decide how hot, cold, wet, or windy it might be!

Date:

Astronomy

Mar. 07, 2013 Rise Set
Actual Time 5:52 AM MST 5:36 PM MST
Civil Twilight 5:28 AM MST 6:00 PM MST
Nautical Twilight 5:00 AM MST 6:28 PM MST
Astronomical Twilight 4:32 AM MST 6:56 PM MST
Moon 2:38 AM MST (3/7) 1:39 PM MST (3/7)
Length of Visible Light 12h 32m
Length of Day
11h 44m
Waning Crescent, 19% of the Moon is Illuminated
Mar 7
Waning Crescent
Mar 11
New
Mar 19
First Quarter
Mar 27
Full
Apr 2
Last Quarter

Hourly Weather History & Observations

Time (MST) Temp. Windchill Dew Point Humidity Pressure Visibility Wind Dir Wind Speed Gust Speed Precip Events Conditions
12:15 AM 44.6 °F - 19.4 °F 37% 30.17 in 10.0 mi Calm Calm - N/A   Clear
12:35 AM 46.4 °F 45.2 °F 19.4 °F 34% 30.17 in 10.0 mi South 3.5 mph - N/A   Clear
12:55 AM 44.6 °F 43.1 °F 19.4 °F 37% 30.18 in 10.0 mi South 3.5 mph - N/A   Clear
1:15 AM 44.6 °F 42.2 °F 19.4 °F 37% 30.17 in 10.0 mi South 4.6 mph - N/A   Clear
1:35 AM 44.6 °F 43.1 °F 19.4 °F 37% 30.16 in 10.0 mi South 3.5 mph - N/A   Clear
1:55 AM 44.6 °F 43.1 °F 21.2 °F 39% 30.15 in 10.0 mi South 3.5 mph - N/A   Clear
2:15 AM 44.6 °F - 23.0 °F 43% 30.14 in 10.0 mi Calm Calm - N/A   Clear
2:35 AM 44.6 °F - 26.6 °F 49% 30.14 in 10.0 mi Calm Calm - N/A   Clear
2:55 AM 41.0 °F - 26.6 °F 57% 30.13 in 10.0 mi Calm Calm - N/A   Clear
3:15 AM 42.8 °F 41.1 °F 28.4 °F 57% 30.12 in 10.0 mi South 3.5 mph - N/A   Clear
3:35 AM 46.4 °F 44.3 °F 26.6 °F 46% 30.13 in 10.0 mi South 4.6 mph - N/A   Clear
3:55 AM 46.4 °F 44.3 °F 28.4 °F 50% 30.13 in 10.0 mi SSE 4.6 mph - N/A   Clear
4:15 AM 44.6 °F - 28.4 °F 53% 30.14 in 10.0 mi Calm Calm - N/A   Clear
4:35 AM 42.8 °F - 28.4 °F 57% 30.14 in 10.0 mi Calm Calm - N/A   Clear
4:55 AM 42.8 °F 40.1 °F 28.4 °F 57% 30.15 in 10.0 mi ESE 4.6 mph - N/A   Clear
5:15 AM 41.0 °F - 30.2 °F 65% 30.15 in 10.0 mi Calm Calm - N/A   Clear
5:35 AM 44.6 °F 43.1 °F 28.4 °F 53% 30.15 in 10.0 mi SSE 3.5 mph - N/A   Clear
5:55 AM 44.6 °F - 28.4 °F 53% 30.17 in 10.0 mi Calm Calm - N/A   Clear
6:15 AM 42.8 °F - 30.2 °F 61% 30.18 in 10.0 mi Calm Calm - N/A   Clear
6:35 AM 44.6 °F - 32.0 °F 61% 30.19 in 10.0 mi Calm Calm - N/A   Clear
6:55 AM 46.4 °F 45.2 °F 37.4 °F 71% 30.20 in 10.0 mi SSW 3.5 mph - N/A   Mostly Cloudy
7:15 AM 50.0 °F - 41.0 °F 71% 30.21 in 10.0 mi South 5.8 mph - N/A   Overcast
7:35 AM 51.8 °F - 42.8 °F 71% 30.22 in 10.0 mi SSW 5.8 mph - N/A   Mostly Cloudy
7:55 AM 53.6 °F - 42.8 °F 67% 30.22 in 10.0 mi South 11.5 mph 16.1 mph N/A   Clear
8:15 AM 53.6 °F - 44.6 °F 72% 30.22 in 10.0 mi South 9.2 mph - N/A   Clear
8:35 AM 55.4 °F - 44.6 °F 67% 30.22 in 10.0 mi South 11.5 mph 19.6 mph N/A   Clear
8:55 AM 57.2 °F - 44.6 °F 63% 30.21 in 10.0 mi South 9.2 mph - N/A   Clear
9:15 AM 59.0 °F - 44.6 °F 59% 30.21 in 10.0 mi South 10.4 mph 20.7 mph N/A   Clear
9:35 AM 60.8 °F - 44.6 °F 55% 30.20 in 10.0 mi SSE 8.1 mph - N/A   Scattered Clouds
9:55 AM 60.8 °F - 44.6 °F 55% 30.20 in 10.0 mi SSE 8.1 mph - N/A   Clear
10:15 AM 62.6 °F - 42.8 °F 48% 30.20 in 10.0 mi SSE 9.2 mph - N/A   Clear
10:35 AM 62.6 °F - 44.6 °F 52% 30.19 in 10.0 mi SSE 9.2 mph - N/A   Clear
10:55 AM 64.4 °F - 42.8 °F 45% 30.18 in 10.0 mi SSE 12.7 mph 18.4 mph N/A   Clear
11:15 AM 64.4 °F - 42.8 °F 45% 30.17 in 10.0 mi South 6.9 mph 17.3 mph N/A   Clear
11:35 AM 66.2 °F - 44.6 °F 46% 30.17 in 10.0 mi South 9.2 mph - N/A   Clear
11:55 AM 68.0 °F - 42.8 °F 40% 30.15 in 10.0 mi SSE 12.7 mph 21.9 mph N/A   Clear
12:15 PM 68.0 °F - 42.8 °F 40% 30.13 in 10.0 mi South 8.1 mph 20.7 mph N/A   Clear
12:35 PM 68.0 °F - 42.8 °F 40% 30.13 in 10.0 mi SSE 10.4 mph 18.4 mph N/A   Clear
12:55 PM 68.0 °F - 44.6 °F 43% 30.13 in 10.0 mi South 11.5 mph - N/A   Clear
1:15 PM 68.0 °F - 41.0 °F 37% 30.12 in 10.0 mi SSE 8.1 mph 17.3 mph N/A   Clear
1:35 PM 68.0 °F - 41.0 °F 37% 30.11 in 10.0 mi South 8.1 mph 17.3 mph N/A   Clear
1:55 PM 69.8 °F - 42.8 °F 38% 30.10 in 10.0 mi South 6.9 mph 21.9 mph N/A   Clear
2:15 PM 68.0 °F - 42.8 °F 40% 30.10 in 10.0 mi South 9.2 mph 17.3 mph N/A   Clear
2:35 PM 69.8 °F - 42.8 °F 38% 30.09 in 10.0 mi South 8.1 mph 18.4 mph N/A   Clear
2:55 PM 69.8 °F - 42.8 °F 38% 30.09 in 10.0 mi SSE 9.2 mph 18.4 mph N/A   Clear
3:15 PM 69.8 °F - 42.8 °F 38% 30.08 in 10.0 mi SE 9.2 mph - N/A   Clear
3:35 PM 69.8 °F - 44.6 °F 40% 30.08 in 10.0 mi SSE 6.9 mph - N/A   Clear
3:55 PM 69.8 °F - 44.6 °F 40% 30.07 in 10.0 mi South 10.4 mph - N/A   Clear
4:15 PM 69.8 °F - 44.6 °F 40% 30.08 in 10.0 mi South 10.4 mph 17.3 mph N/A   Clear
4:35 PM 69.8 °F - 44.6 °F 40% 30.07 in 10.0 mi SSE 8.1 mph 19.6 mph N/A   Clear
4:55 PM 68.0 °F - 44.6 °F 43% 30.07 in 10.0 mi South 6.9 mph - N/A   Clear
6:35 PM 66.2 °F - 50.0 °F 56% 30.10 in 10.0 mi South 11.5 mph 21.9 mph N/A   Overcast
6:55 PM 64.4 °F - 50.0 °F 59% 30.10 in 10.0 mi SSE 11.5 mph 16.1 mph N/A   Overcast
7:15 PM 64.4 °F - 50.0 °F 59% 30.11 in 10.0 mi SSE 9.2 mph - N/A   Overcast
7:35 PM 62.6 °F - 50.0 °F 63% 30.11 in 10.0 mi SSE 10.4 mph 16.1 mph N/A   Overcast
7:55 PM 62.6 °F - 51.8 °F 68% 30.11 in 10.0 mi SSE 8.1 mph 20.7 mph N/A   Mostly Cloudy
8:15 PM 62.6 °F - 51.8 °F 68% 30.12 in 10.0 mi South 8.1 mph 17.3 mph N/A   Mostly Cloudy
8:35 PM 62.6 °F - 51.8 °F 68% 30.12 in 10.0 mi SSE 11.5 mph 18.4 mph N/A   Overcast
8:55 PM 62.6 °F - 51.8 °F 68% 30.11 in 10.0 mi SSE 10.4 mph 19.6 mph N/A   Overcast
9:15 PM 60.8 °F - 51.8 °F 72% 30.11 in 10.0 mi SSE 10.4 mph 18.4 mph N/A   Overcast
9:35 PM 60.8 °F - 51.8 °F 72% 30.11 in 10.0 mi SSE 8.1 mph 16.1 mph N/A   Overcast
9:55 PM 60.8 °F - 51.8 °F 72% 30.11 in 10.0 mi SSE 12.7 mph 20.7 mph N/A   Overcast
10:15 PM 60.8 °F - 51.8 °F 72% 30.11 in 10.0 mi SSE 9.2 mph - N/A   Overcast
10:35 PM 60.8 °F - 51.8 °F 72% 30.11 in 10.0 mi SSE 12.7 mph 17.3 mph N/A   Overcast
11:15 PM 59.0 °F - 51.8 °F 77% 30.10 in 10.0 mi SSE 9.2 mph 23.0 mph N/A   Overcast
11:35 PM 59.0 °F - 51.8 °F 77% 30.10 in 10.0 mi SSE 9.2 mph 16.1 mph N/A   Overcast
11:55 PM 59.0 °F - 51.8 °F 77% 30.10 in 10.0 mi SSE 10.4 mph 20.7 mph N/A   Overcast